Waarnemingen

Advertentie
Mijn weer
Moron de la Frontera, Spanje (8397): temperatuur & dauwpunt: 17.05.2018 20:00:00 - 23.05.2018 20:00:00 (CEST)Moron de la Frontera, Spanje (8397): windsnelheid: 17.05.2018 20:00:00 - 23.05.2018 20:00:00 (CEST)Moron de la Frontera, Spanje (8397): windrichting: 17.05.2018 20:00:00 - 23.05.2018 20:00:00 (CEST)Moron de la Frontera, Spanje (8397): luchtdruk: 17.05.2018 20:00:00 - 23.05.2018 20:00:00 (CEST)Moron de la Frontera, Spanje (8397): zicht: 17.05.2018 20:00:00 - 23.05.2018 20:00:00 (CEST)
Datum & Tijd tt [°C] td [°C] ff [km/u] ff [kn] dd ppp [hPa] vv [km]
23.05.2018 20:00:00 - - - - - - -
23.05.2018 19:00:00 - - - - - - -
23.05.2018 18:00:00 - - - - - - -
23.05.2018 17:00:00 27,1 11,2 0 0 N 1012,8 20
23.05.2018 16:00:00 - - - - - - -
23.05.2018 15:00:00 - - - - - - -
23.05.2018 14:00:00 24,5 12,8 4 2 NW 1015,0 20
23.05.2018 13:00:00 - - - - - - -
23.05.2018 12:00:00 - - - - - - -
23.05.2018 11:00:00 19,9 14,0 4 2 NNO 1015,3 8
23.05.2018 10:00:00 - - - - - - -
23.05.2018 09:00:00 - - - - - - -
23.05.2018 08:00:00 13,5 12,6 2 1 Z 1015,1 8
23.05.2018 07:00:00 - - - - - - -
23.05.2018 06:00:00 - - - - - - -
23.05.2018 05:00:00 14,1 13,1 0 0 N 1014,3 9
23.05.2018 04:00:00 - - - - - - -
23.05.2018 03:00:00 - - - - - - -
23.05.2018 02:00:00 15,6 13,8 4 2 ZW 1015,1 20
23.05.2018 01:00:00 - - - - - - -
23.05.2018 00:00:00 - - - - - - -
22.05.2018 23:00:00 20,4 12,4 4 2 WNW 1014,3 25
22.05.2018 22:00:00 - - - - - - -
22.05.2018 21:00:00 - - - - - - -
22.05.2018 20:00:00 25,7 10,3 2 1 NW 1013,2 25
22.05.2018 19:00:00 - - - - - - -
22.05.2018 18:00:00 - - - - - - -
22.05.2018 17:00:00 25,7 12,2 4 2 W 1013,6 25
22.05.2018 16:00:00 - - - - - - -
22.05.2018 15:00:00 - - - - - - -
22.05.2018 14:00:00 21,7 13,6 4 2 N 1015,1 15
22.05.2018 13:00:00 - - - - - - -
22.05.2018 12:00:00 - - - - - - -
22.05.2018 11:00:00 16,6 13,1 4 2 NO 1015,8 9
22.05.2018 10:00:00 - - - - - - -
22.05.2018 09:00:00 - - - - - - -
22.05.2018 08:00:00 14,9 12,6 4 2 Z 1015,1 12
22.05.2018 07:00:00 - - - - - - -
22.05.2018 06:00:00 - - - - - - -
22.05.2018 05:00:00 12,9 12,4 4 2 Z 1014,5 8
22.05.2018 04:00:00 - - - - - - -
22.05.2018 03:00:00 - - - - - - -
22.05.2018 02:00:00 13,2 12,4 5 3 ZZW 1015,0 8
22.05.2018 01:00:00 - - - - - - -
22.05.2018 00:00:00 - - - - - - -
21.05.2018 23:00:00 16,2 13,7 9 5 WZW 1014,4 15
21.05.2018 22:00:00 - - - - - - -
21.05.2018 21:00:00 - - - - - - -
21.05.2018 20:00:00 22,4 13,5 5 3 W 1012,5 20
21.05.2018 19:00:00 - - - - - - -
21.05.2018 18:00:00 - - - - - - -
21.05.2018 17:00:00 23,0 11,7 5 3 W 1011,6 25
21.05.2018 16:00:00 - - - - - - -
21.05.2018 15:00:00 - - - - - - -
21.05.2018 14:00:00 23,0 11,7 9 5 ZW 1012,7 25
21.05.2018 13:00:00 - - - - - - -
21.05.2018 12:00:00 - - - - - - -
21.05.2018 11:00:00 17,3 14,6 4 2 WZW 1013,4 25
21.05.2018 10:00:00 - - - - - - -
21.05.2018 09:00:00 - - - - - - -
21.05.2018 08:00:00 14,3 13,5 5 3 ZZW 1012,5 15
21.05.2018 07:00:00 - - - - - - -
21.05.2018 06:00:00 - - - - - - -
21.05.2018 05:00:00 15,0 14,2 0 0 N 1012,1 15
21.05.2018 04:00:00 - - - - - - -
21.05.2018 03:00:00 - - - - - - -
21.05.2018 02:00:00 14,4 13,8 4 2 ZZW 1013,1 15
21.05.2018 01:00:00 - - - - - - -
21.05.2018 00:00:00 - - - - - - -
20.05.2018 23:00:00 15,7 14,7 0 0 N 1013,5 25
20.05.2018 22:00:00 - - - - - - -
20.05.2018 21:00:00 - - - - - - -
20.05.2018 20:00:00 16,1 15,0 8 4 Z 1012,4 25
20.05.2018 19:00:00 - - - - - - -
20.05.2018 18:00:00 - - - - - - -
20.05.2018 17:00:00 24,4 11,7 8 4 N 1011,8 25
20.05.2018 16:00:00 - - - - - - -
20.05.2018 15:00:00 - - - - - - -
20.05.2018 14:00:00 24,2 11,5 8 4 NNO 1013,1 25
20.05.2018 13:00:00 - - - - - - -
20.05.2018 12:00:00 - - - - - - -
20.05.2018 11:00:00 20,8 13,0 4 2 WZW 1014,5 20
20.05.2018 10:00:00 - - - - - - -
20.05.2018 09:00:00 - - - - - - -
20.05.2018 08:00:00 12,5 11,9 4 2 O 1015,0 10
20.05.2018 07:00:00 - - - - - - -
20.05.2018 06:00:00 - - - - - - -
20.05.2018 05:00:00 13,1 12,3 4 2 ZW 1014,6 10
20.05.2018 04:00:00 - - - - - - -
20.05.2018 03:00:00 - - - - - - -
20.05.2018 02:00:00 13,5 12,7 4 2 Z 1016,0 15
20.05.2018 01:00:00 - - - - - - -
20.05.2018 00:00:00 - - - - - - -
19.05.2018 23:00:00 16,6 14,4 4 2 O 1015,8 20
19.05.2018 22:00:00 - - - - - - -
19.05.2018 21:00:00 - - - - - - -
19.05.2018 20:00:00 19,0 13,8 4 2 N 1015,3 20
19.05.2018 19:00:00 - - - - - - -
19.05.2018 18:00:00 - - - - - - -
19.05.2018 17:00:00 25,5 9,3 11 6 ZW 1013,5 15
19.05.2018 16:00:00 - - - - - - -
19.05.2018 15:00:00 - - - - - - -
19.05.2018 14:00:00 25,9 11,3 11 6 O 1014,6 25
19.05.2018 13:00:00 - - - - - - -
19.05.2018 12:00:00 - - - - - - -
19.05.2018 11:00:00 21,9 11,6 9 5 OZO 1015,3 20
19.05.2018 10:00:00 - - - - - - -
19.05.2018 09:00:00 - - - - - - -
19.05.2018 08:00:00 14,7 11,1 5 3 OZO 1014,9 20
19.05.2018 07:00:00 - - - - - - -
19.05.2018 06:00:00 - - - - - - -
19.05.2018 05:00:00 13,0 11,6 0 0 N 1014,6 15
19.05.2018 04:00:00 - - - - - - -
19.05.2018 03:00:00 - - - - - - -
19.05.2018 02:00:00 16,0 14,2 5 3 O 1015,4 15
19.05.2018 01:00:00 - - - - - - -
19.05.2018 00:00:00 - - - - - - -
18.05.2018 23:00:00 18,2 14,3 9 5 NO 1014,8 20
18.05.2018 22:00:00 - - - - - - -
18.05.2018 21:00:00 - - - - - - -
18.05.2018 20:00:00 20,8 12,8 8 4 OZO 1013,3 20
18.05.2018 19:00:00 - - - - - - -
18.05.2018 18:00:00 - - - - - - -
18.05.2018 17:00:00 26,8 10,9 11 6 ZW 1012,0 20
18.05.2018 16:00:00 - - - - - - -
18.05.2018 15:00:00 - - - - - - -
18.05.2018 14:00:00 25,1 11,3 4 2 O 1014,3 20
18.05.2018 13:00:00 - - - - - - -
18.05.2018 12:00:00 - - - - - - -
18.05.2018 11:00:00 21,8 14,9 8 4 NO 1015,3 20
18.05.2018 10:00:00 - - - - - - -
18.05.2018 09:00:00 - - - - - - -
18.05.2018 08:00:00 14,2 12,1 4 2 O 1014,8 20
18.05.2018 07:00:00 - - - - - - -
18.05.2018 06:00:00 - - - - - - -
18.05.2018 05:00:00 14,3 12,2 4 2 O 1014,4 25
18.05.2018 04:00:00 - - - - - - -
18.05.2018 03:00:00 - - - - - - -
18.05.2018 02:00:00 15,7 12,5 4 2 ZZO 1015,1 25
18.05.2018 01:00:00 - - - - - - -
18.05.2018 00:00:00 - - - - - - -
17.05.2018 23:00:00 18,9 13,3 4 2 W 1014,0 30
17.05.2018 22:00:00 - - - - - - -
17.05.2018 21:00:00 - - - - - - -
17.05.2018 20:00:00 25,0 12,6 15 8 WZW 1011,6 30

tt = temperatuur
td = dauwpunt
ff = windsnelheid
dd = windrichting
ppp = luchtdruk
vv = zicht

Weerstations in de omgeving